Location: Bailleul
(50.3375°N, 2.8513°E)
Time: 13:31:08
(UTC+00:00)

Cosmos 2322 Rocket - Pass Details

Date: 16 June 2021
Orbit: 833 x 850 km, 71.0° (Epoch: 29 July)

Event Time Altitude Azimuth Distance (km) Brightness Sun altitude
Rises 21:44:18 0° 221° (SW) 3,403 5.1 -11.3°
Reaches altitude 10° 21:46:47 10° 225° (SW) 2,472 4.5 -11.4°
Maximum altitude 21:52:24 58° 305° (NW) 988 2.9 -11.9°
Drops below altitude 10° 21:58:02 10° 24° (NNE) 2,488 5.2 -12.3°
Sets 22:00:33 0° 29° (NNE) 3,427 5.9 -12.4°
